Simultaneous Nadir Overpasses (SNOs) Predictions

Prediction of SNOs between LANDSAT-8 and METOP-B Satellite Orbit:

Table of predicted SNOs for the next 14.0 days since TLE Epoch: 8/7/2015
Index Date (LANDSAT-8) Time (LANDSAT-8) Lat,Lon (LANDSAT-8) SZA (LANDSAT-8 ) Date (METOP-B) Time (METOP-B) Lat,Lon (METOP-B) SZA (METOP-B ) Distance(km) Time Diff (sec)
1 08/08/2015 14:00:24 81.12, 9.93 67.00 08/08/2015 13:59:16 81.12, 9.94 66.97 0.47 68
2 08/08/2015 14:49:50 -81.14, 177.86 112.95 08/08/2015 14:49:56 -81.14, 177.71 112.97 2.67 6
3 08/11/2015 09:34:41 81.12, 76.38 67.82 08/11/2015 09:33:37 81.12, 76.46 67.80 1.46 64
4 08/11/2015 10:24:07 -81.15,-115.66 112.12 08/11/2015 10:24:17 -81.14,-115.74 112.13 1.40 10
5 08/14/2015 05:08:58 81.12, 142.76 68.67 08/14/2015 05:07:58 81.13, 142.95 68.67 3.31 60
6 08/14/2015 05:58:24 -81.14, -49.25 111.27 08/14/2015 05:58:38 -81.14, -49.22 111.26 0.61 14
7 08/17/2015 00:43:14 81.11,-150.92 69.54 08/17/2015 00:42:19 81.12,-150.96 69.52 0.77 55
8 08/17/2015 01:32:40 -81.14, 17.10 110.39 08/17/2015 01:32:58 -81.15, 17.28 110.36 3.30 18
9 08/19/2015 20:17:30 81.13, -84.30 70.49 08/19/2015 20:16:39 81.13, -84.15 70.49 2.61 51




NCC Satellite Simultaneous Nadir Overpasses (SNOs) Prediction Service
